Dewpoint
39 42 44 50 55 56 56 56 56 55 54 52 49 45 39 36 34 33 33 32 33 33 33 32 30 31 29 27 25 26 24 26 26 27 27 24 22 22 24 25 24 22 22
40 45 50 52 54 55 55 55 55 55 54 52 49 45 39 35 34 35 33 33 32 35 33 31 31 30 30 26 25 25 25 26 26 26 25 25 25 24 21 22 20 20 23
35 38 44 49 53 54 55 55 55 54 54 52 49 43 39 37 34 34 33 33 31 35 33 32 32 31 29 28 26 26 26 26 25 24 27 23 21 19 25 22 23 21 24
28 35 37 47 52 53 54 55 54 54 54 52 47 41 38 34 33 33 33 32 32 34 34 33 31 31 31 29 27 26 25 27 25 24 22 23 22 19 17 24 24 24 22
25 29 32 42 51 53 53 54 54 54 54 52 46 42 39 36 34 33 32 31 33 33 34 34 32 31 32 29 25 26 25 25 27 27 24 22 23 21 20 22 22 23 25
25 25 28 41 49 52 53 53 53 53 53 51 47 43 40 36 34 33 32 32 33 33 34 33 32 31 31 29 27 27 25 25 25 26 25 25 23 22 22 21 20 19 21
25 26 29 42 45 50 52 53 53 53 53 51 47 44 41 36 33 32 32 31 32 32 32 32 32 30 30 29 29 28 26 25 24 24 24 24 23 24 22 21 21 20 22
21 25 27 38 44 49 52 53 53 52 53 51 48 46 43 38 34 33 32 31 31 32 32 31 31 29 29 29 28 27 27 25 26 23 24 24 24 24 23 23 22 20 22
25 27 27 33 42 46 50 52 52 52 52 51 49 48 44 40 35 33 32 31 31 31 31 30 29 28 27 26 26 26 24 24 24 24 23 23 24 24 24 23 23 23 18
38 38 38 35 39 44 49 51 52 52 51 51 50 49 46 41 36 33 32 31 31 31 31 30 29 27 26 25 25 25 23 23 24 25 23 22 23 23 24 24 24 24 24
30 32 36 37 35 41 45 49 51 51 51 50 50 49 47 43 38 34 32 31 31 31 30 29 28 26 24 23 24 23 22 22 23 22 22 22 22 22 23 24 25 25 25
26 27 30 32 37 37 43 45 49 50 50 50 49 48 47 44 40 35 33 32 30 30 30 28 27 25 23 22 22 21 21 21 22 21 22 23 20 21 23 24 24 25 25
23 22 25 28 31 35 41 44 46 48 49 49 49 48 47 44 42 36 33 32 30 30 29 27 26 24 23 21 21 20 21 21 21 22 22 22 22 22 24 25 25 25 25
20 22 21 23 26 28 32 41 44 45 46 48 48 47 46 43 42 37 34 32 30 29 28 27 25 24 22 20 20 19 20 20 21 22 22 22 23 24 24 25 25 26 26
18 20 21 21 22 24 28 33 41 44 44 45 46 45 45 43 42 37 35 32 30 28 27 26 24 22 21 19 19 19 19 20 21 23 23 25 26 28 27 26 26 27 27
16 17 20 21 21 22 25 28 38 42 43 44 44 44 43 42 39 36 34 32 29 28 26 24 23 21 18 27 27 23 22 22 22 24 26 26 29 28 28 29 30 29 27
15 16 20 20 21 22 23 28 36 40 41 41 41 41 41 39 37 35 33 30 28 27 25 23 21 19 18 30 29 28 24 25 27 28 27 25 23 27 25 27 28 28 29
15 16 20 20 21 22 24 35 38 38 38 39 38 38 37 36 35 33 31 29 27 24 22 20 20 18 23 31 30 29 28 29 29 29 26 25 24 26 26 26 26 27 27
15 18 19 20 20 22 23 30 36 36 36 36 36 35 34 33 32 31 29 26 23 21 20 20 18 20 26 31 30 31 30 28 27 26 26 25 26 26 25 27 26 25 25
17 19 19 20 21 22 23 27 33 35 34 34 33 33 32 32 30 29 25 22 22 20 19 18 18 27 27 31 32 31 29 27 26 26 26 28 27 25 26 26 25 24 24
17 19 18 20 21 22 23 27 31 32 32 31 31 31 30 29 27 24 22 21 20 18 18 18 23 28 29 30 33 31 28 27 27 26 26 24 23 24 26 26 24 24 25
19 19 20 19 21 22 22 26 29 30 30 30 29 28 27 25 23 22 21 19 19 21 21 23 25 28 29 32 32 31 30 29 28 27 24 24 25 24 24 23 24 25 24
18 19 19 20 21 22 24 24 28 28 27 27 26 25 24 22 22 22 20 20 21 22 21 21 24 25 27 28 31 30 30 29 27 25 26 24 22 22 21 22 23 22 21
19 20 20 20 21 22 25 27 25 26 26 26 24 22 22 23 22 21 21 22 22 21 20 21 23 26 29 30 32 31 29 27 25 25 23 22 22 21 21 21 22 22 21
20 20 20 21 21 24 25 27 27 24 24 24 24 24 24 23 23 23 23 23 23 23 24 24 25 26 27 29 31 29 27 26 24 24 24 23 22 22 21 22 21 21 21
17 19 19 20 20 18 22 25 28 27 26 24 25 26 25 24 24 25 27 28 28 29 30 30 29 30 31 33 33 29 28 26 25 24 21 18 18 18 18 19 20 20 20
Lifted_Index
4 4 4 3 3 2 2 2 2 2 2 2 3 4 6 9 12 14 15 16 16 15 15 15 14 14 15 14 14 14 13 13 12 12 12 13 15 17 19 20 20 20 20
4 4 4 3 3 2 2 3 2 2 2 2 3 4 6 9 12 13 15 16 16 16 15 15 14 14 15 15 14 14 13 12 12 12 12 12 13 16 18 19 20 20 20
3 4 4 3 2 2 2 2 3 2 2 2 3 4 6 8 10 12 14 15 16 16 15 15 15 15 15 15 15 14 13 12 12 12 12 12 12 13 15 17 19 19 20
3 3 4 3 2 2 2 2 2 2 2 2 3 4 5 6 8 10 12 14 15 16 16 15 15 15 15 15 15 14 13 12 11 11 12 13 13 13 13 15 17 18 19
3 4 4 3 2 1 1 2 2 2 2 2 3 3 4 5 6 8 11 13 14 16 16 16 16 15 15 15 15 15 14 12 11 11 12 13 13 13 13 13 14 17 18
4 4 5 4 3 2 1 2 2 2 2 2 3 4 4 4 5 6 8 11 13 14 15 16 16 16 15 15 15 15 14 12 11 11 11 12 13 14 14 13 13 14 16
4 5 5 4 3 2 1 1 2 3 3 3 4 4 4 4 4 5 6 8 10 12 14 15 15 16 16 16 16 15 14 13 11 11 11 12 13 15 16 15 14 13 14
4 4 5 5 4 3 2 1 2 3 3 4 4 5 5 5 5 5 5 7 8 11 13 14 15 16 16 16 16 15 14 13 12 11 11 12 15 17 18 18 16 14 13
4 5 5 5 4 3 2 1 2 3 3 4 4 5 6 6 5 5 5 6 7 10 12 14 15 16 16 16 16 15 14 13 12 11 11 12 15 18 19 20 19 16 14
5 5 6 6 5 4 3 2 2 2 3 4 5 5 6 7 6 6 6 6 7 8 10 12 14 15 15 15 15 15 14 13 12 11 11 12 15 18 19 20 20 19 18
5 6 6 6 6 5 4 3 2 2 3 4 5 6 7 7 7 7 7 6 6 7 9 11 13 14 14 15 15 15 14 13 12 11 11 12 15 17 19 20 20 20 20
5 6 6 7 7 6 6 5 4 3 4 5 5 6 7 8 8 8 8 7 7 7 8 10 12 13 14 14 14 14 14 13 12 11 11 12 15 17 19 20 20 20 21
6 6 6 6 7 7 7 6 5 5 5 5 5 6 7 8 8 9 9 9 9 8 9 10 11 12 13 14 14 14 14 13 12 11 12 13 15 17 19 20 20 20 21
6 6 6 6 7 7 7 6 6 6 6 6 6 6 7 7 9 9 10 10 10 10 9 10 11 12 13 14 14 14 14 13 12 12 13 14 16 18 19 20 20 20 20
6 6 6 7 7 7 7 7 7 7 7 6 6 7 7 8 9 10 10 11 11 10 10 10 11 12 13 14 14 14 14 13 12 12 13 16 18 20 20 20 20 20 20
6 6 7 7 8 8 8 8 8 8 7 7 7 8 8 9 9 10 11 11 11 11 11 11 11 12 13 14 14 14 14 13 12 12 14 17 19 20 21 21 21 20 20
6 7 8 8 9 10 10 10 9 9 8 8 8 9 9 9 10 11 11 12 12 12 11 11 11 12 13 14 14 14 14 13 13 13 15 17 19 20 21 21 21 20 20
8 8 9 10 10 11 11 11 10 10 10 9 9 10 10 10 11 11 12 12 13 13 12 12 12 12 14 15 15 14 14 13 13 15 17 19 20 21 21 20 20 20 20
10 10 10 11 11 12 11 11 11 11 11 10 10 11 11 12 12 12 13 13 14 13 13 13 13 14 15 15 15 14 14 13 14 17 19 20 20 21 21 20 20 19 20
12 12 12 12 11 12 12 11 11 11 11 11 11 12 12 12 13 13 14 14 14 14 14 14 14 15 16 16 15 15 14 13 14 17 19 20 21 21 21 21 20 20 20
14 14 13 12 12 12 12 11 10 10 11 12 12 12 13 13 13 14 14 14 14 14 14 15 16 17 17 16 16 16 16 15 16 18 19 20 21 21 21 21 21 21 21
15 15 14 13 13 13 12 11 10 11 11 12 12 12 13 13 14 14 14 14 14 14 14 15 16 17 18 18 18 18 18 18 18 18 20 21 21 21 21 21 22 22 22
15 15 15 14 14 14 12 11 11 11 12 12 12 12 12 13 14 14 14 14 14 14 14 14 15 16 17 18 19 19 20 20 19 19 20 21 21 21 22 22 22 22 22
15 15 15 14 14 15 14 13 13 13 12 13 13 12 12 13 14 14 14 14 14 14 14 14 14 14 15 17 18 19 19 20 20 20 21 21 21 21 21 22 22 22 21
16 16 15 15 15 16 16 15 15 14 13 13 14 14 14 14 14 14 15 16 16 16 15 15 15 14 15 17 18 18 19 20 20 21 21 21 21 21 21 21 21 21 21
17 16 16 15 16 17 17 17 17 16 14 14 15 16 16 15 14 14 15 18 19 18 17 16 16 15 16 18 19 19 19 20 21 21 21 20 20 21 21 21 21 21 21